Location: *
(50.5492°N, 7.7469°E)
Time: 02:43:57
(UTC+00:00)

Cosmos 468 Rocket - Pass Details

Date: 21 October 2019
Orbit: 745 x 779 km, 74.0° (Epoch: 14 November)

Event Time Altitude Azimuth Distance (km) Brightness Sun altitude
Rises 19:21:42 0° 210° (SSW) 3,241 7.4 -28.4°
Reaches altitude 10° 19:24:06 10° 212° (SSW) 2,314 6.6 -28.8°
Enters shadow 19:28:19 55° 239° (WSW) 923 4.5 -29.4°
